COSMOS 2474 (742) (37829 NORAD) Tracking and Keplerian Element Data

This shows tracking and keplerian element data for the satellite.

Feedback or suggestion? Click here.




ElementValue
Catalog37829
NameCOSMOS 2474 (742)
Epoch Orbit6773
Epoch Day167.57168714
Epoch Year2020
RAAN147.1815
Inclination64.5481
Eccentricity0.0010578
Argument of Perigee250.005
Mean Anonmoly50.6227
Mean Motion2.13101708
Decay Rate8.3E-07
L11 37829U 11055A 20167.57168714 .00000083 00000-0 00000-0 0 9997
L22 37829 64.5481 147.1815 0010578 250.0050 50.6227 2.13101708 67737



Live tracking and technical data element details for COSMOS 2474 (742) (NORAD 37829). COSMOS 2474 (742) can be tracked NOW for your location showing map with azimuth and elevation plus other details from your city location.







IsCatalogInMostPopularTable: catalog: 37829, numindb: 358
Update: records affected: 1



GetName: 37829 COSMOS 2474 (742)

Hit Count: updated at: Thu, 15 May 2025 09:51:44 GMT